Tracking 27086 objects as of 22-Mar-2023
HD Live streaming from Space Station
objects crossing your sky now

STARLINK-3191

Track STARLINK-3191 now!
10-day predictions
STARLINK-3191 is classified as:


NORAD ID: 49770
Int'l Code: 2021-115AY
Perigee: 546.4 km
Apogee: 547.4 km
Inclination: 53.2 °
Period: 95.4 minutes
Semi major axis: 6917 km
RCS: Unknown
Launch date: December 2, 2021
Source: United States (US)
Launch site: AIR FORCE EASTERN TEST RANGE (AFETR)
Your satellite tracking list
Your tracking list is empty




NASA's NSSDC Master Catalog

Two Line Element Set (TLE):
1 49770U 21115AY  23081.11455564  .00029648  00000-0  18730-2 0  9992
2 49770  53.2158 323.5301 0000694  92.3055 267.8017 15.08842385 73200
Source of the keplerian elements: AFSPC